Regional Weather Roundup
Issued by NWS Upton, NY

Home | Current Version | Previous Version | Text Only | Print | Product List | Glossary On
Versions: 1 2 3 4 5 6 7 8 9 10 11 12 13 14 15 16 17 18 19 20 21 22 23 24 25 26 27 28 29 30 31 32 33 34 35 36 37 38 39 40 41 42 43 44 45 46 47 48 49 50
000
ASUS41 KOKX 210807
RWROKX

REGIONAL WEATHER ROUNDUP
NATIONAL WEATHER SERVICE NEW YORK NY
400 AM EDT TUE APR 21 2015

NOTE: "FAIR" INDICATES FEW OR NO CLOUDS BELOW 12,000 FEET WITH NO
SIGNIFICANT WEATHER AND/OR OBSTRUCTIONS TO VISIBILITY.

NYZ071-072-176-178-NJZ106-104-210900-
NEW YORK CITY METRO AREA


CITY           SKY/WX    TMP DP  RH WIND       PRES   REMARKS
CENTRAL PARK   LGT RAIN  53  53 100 VRB3      29.60S
LAGUARDIA APRT CLOUDY    56  53  90 NW6       29.56F
KENNEDY INTL   CLOUDY    55  53  93 NE5       29.58R
NEWARK/LIBERTY LGT RAIN  56  56 100 N6        29.56F
BRNX BOT. GARD   N/A     54  54 100 NW1       29.59S
TETERBORO      LGT RAIN  55  53  93 W3        29.56F FOG
$$

NYZ177-179-078>081-210900-
LONG ISLAND NEW YORK

CITY           SKY/WX    TMP DP  RH WIND       PRES   REMARKS
FARMINGDALE    LGT RAIN  54  53  97 CALM      29.57R FOG
ISLIP          RAIN      53  52  96 NW8       29.55R FOG
SHIRLEY        CLOUDY    53  52  96 SW8       29.59R FOG
WESTHAMPTON    CLOUDY    53  53 100 SW7       29.58F FOG
MONTAUK POINT    N/A     55  54  96 S8        29.56F
$$

NYZ052-065-067-210900-
HUDSON VALLEY

CITY           SKY/WX    TMP DP  RH WIND       PRES   REMARKS
WHITE PLAINS   CLOUDY    55  52  89 NW10      29.54F FOG
NEWBURGH       MOCLDY    54  54 100 VRB6      29.57F
MONTGOMERY     CLOUDY    53  32  44 CALM      29.54F
POUGHKEEPSIE   LGT RAIN  54  52  93 CALM      29.57S
ALBANY         LGT RAIN  51  48  89 NE7       29.55F
$$

NJZ001-105-106-008-010-013-015-019>022-104-210900-
NEW JERSEY

CITY           SKY/WX    TMP DP  RH WIND       PRES   REMARKS
NEWARK/LIBERTY LGT RAIN  56  56 100 N6        29.56F
TETERBORO      LGT RAIN  55  53  93 W3        29.56F FOG
CALDWELL       LGT RAIN  55  53  93 E3        29.56F
MORRISTOWN     LGT RAIN  55  54  94 CALM      29.57F
SOMERVILLE     LGT RAIN  56  54  93 S3        29.55S FOG
SUSSEX         CLOUDY    53  51  93 CALM      29.55F
ANDOVER          N/A     53  52  96 CALM      29.55F
TRENTON        LGT RAIN  57  54  89 CALM      29.58R FOG
MILLVILLE      LGT RAIN  59  56  89 NW6       29.59R
ATLANTIC CITY  CLOUDY    61  56  83 W7        29.58R
WRIGHTSTOWN    LGT RAIN  59  57  94 N5        29.55F
TOMS RIVER     CLOUDY    61  55  82 NW5       29.58S
BELMAR         CLOUDY    57  52  82 NW10      29.58R
$$

PAZ047>061-062-071-210900-
EASTERN PENNSYLVANIA

CITY           SKY/WX    TMP DP  RH WIND       PRES   REMARKS
PHILADELPHIA   LGT RAIN  60  57  89 CALM      29.60R
ALLENTOWN      CLOUDY    54  52  93 CALM      29.57R
SCRANTON       CLOUDY    54  51  90 MISG      29.54S FOG
$$

CTZ002-004>006-009-010-012-RIZ004-006-007-MAZ004-011-015-210900-
SOUTHERN NEW ENGLAND
 IN CT

CITY           SKY/WX    TMP DP  RH WIND       PRES   REMARKS
BRADLEY INTL   LGT RAIN  50  48  93 NW6       29.56S
HARTFORD       CLOUDY    51  49  92 W7        29.56S
DANBURY        MOCLDY    54  53  97 CALM      29.57F
WTRBRY/OXFORD  CLOUDY    54  48  82 N7        29.57F
BRIDGEPORT     CLOUDY    52  51  97 CALM      29.56S FOG
MERIDEN        CLOUDY    52  50  93 NW5       29.56S
NEW HAVEN      LGT RAIN  54  53  97 SE6       29.55S VSB 1
CHESTER        FOG       55  55 100 S5        29.56F VSB<1/4
GROTON         TSTM      51  51 100 S6G20     29.56F VSB 1
WILLIMANTIC    CLOUDY    55  53  93 CALM      29.57R FOG

 IN RI

CITY           SKY/WX    TMP DP  RH WIND       PRES   REMARKS
PROVIDENCE     FOG       50  50 100 S6        29.57F THUNDER VSB 1/4
BLOCK ISLAND   CLOUDY    55  54  94 SW20G49   29.58S VSB 3/4
WESTERLY       RAIN      53  53 100 SW12G26   29.57S VSB 3/4

 IN MA

CITY           SKY/WX    TMP DP  RH WIND       PRES   REMARKS
BOSTON         FOG       48  48 100 E9        29.59F VSB 1/2
WORCESTER      LGT RAIN  49  48  97 N10       29.56F VSB 1/2
WESTFIELD      LGT RAIN  50  47  89 N5        29.57R
PROVINCETOWN   CLOUDY   N/A N/A N/A SE14G23   29.62F
NANTUCKET      LGT RAIN  50  49  96 SE16      29.64F VSB 1/4
$$

ANZ330-335-338-340-345-350-353-355-210900-
COASTAL MARINE OBSERVATIONS


STATION/POSITION TIME  SKY/WX   TEMP    WIND        PRES    VSBY  WAVE
                                AIR SEA DIR/SP/G                  HT/PER
                 (UTC)          (F)     (DEG/KT/KT) (MB)    (MI)  (FT/S)
NY HARB ENTRANCE 0750            49 44  260/  4/  6 1001.3          7/10
4S FIRE IS       0703               43                N/A           9/11
20S FIRE ISLAND  0650               43              1000.8          9/10
23SW MTP         NOT AVBL
HUDSON CANYON    NOT AVBL
EXECUTION ROCKS  NOT AVBL
WESTERN LI SOUND NOT AVBL
CENTRAL LI SOUND NOT AVBL
EASTERN LI SOUND 0700            47     170/ 10/ 14   N/A
ROBBINS REEF     0700            54     320/  4/  5 1000.5
$$


>>>>>>>>>>>>>>>>>>>>>>>>>>>> KEY <<<<<<<<<<<<<<<<<<<<<<<<<<<
>                                                          <
>     SKY/WX - SKY CONDITION/PRESENT WEATHER               <
>     TMP    - TEMPERATURE IN FAHRENHEIT                   <
>     DP     - DEWPOINT IN FAHRENHEIT                      <
>     RH     - RELATIVE HUMIDITY IN PERCENT                <
>     WIND   - DIRECTION AND SPEED IN MPH                  <
>     PRES   - MEAN SEA LEVEL PRESSURE IN INCHES OF HG     <
>     WCI    - WIND CHILL INDEX                            <
>     VSB    - VISIBILITY IN MILES                         <
>     HX     - HEAT INDEX                                  <
>     TC     - TEMPERATURE IN CELSIUS                      <
>     VRB    - VARIABLE WIND DIRECTION                     <
>                                                          <
>>>>>>>>>>>>>>>>>>>>>>>>>>>> KEY <<<<<<<<<<<<<<<<<<<<<<<<<<<





USA.gov is the U.S. government's official web portal to all federal, state and local government web resources and services.